Torna al catalogo

STARLINK-31980

AttivoComunicazioniVLEO
NORAD 59962·PAYLOAD·🇺🇸 United States

Lanciato Jun 5, 2024 da Cape Canaveral Space Force Station

Loading…

Prossimi Passaggi (prossime 24 ore)

TLE

AggiornatoSource: CelesTrak SupGP

Epoca: Sep 14, 2026, 22:37 UTC

1 59962C 24107T   26257.94284722  .00045505  00000+0  13445-2 0  2579
2 59962  53.1577 263.3701 0001298  93.6642 338.5975 15.34367216    12

Traccia STARLINK-31980 in tempo reale con AllMySat

Download on the App Store